| time (UTC) | temp F | wind direction | speed MPH | gust MPH | rain 1hr in | rain 24hr in | rain mn in | humidity % | barometer mb |
| 20260504011429 | 71 | 300 | 3.0 | 5.0 | 0.00 | 0.00 | 0.00 | 56 | 1018.0 |
| 20260504010929 | 71 | 297 | 2.0 | 4.0 | 0.00 | 0.00 | 0.00 | 59 | 1018.0 |
| 20260504010429 | 71 | 272 | 4.0 | 6.0 | 0.00 | 0.00 | 0.00 | 60 | 1018.0 |
| 20260504005931 | 71 | 259 | 6.0 | 9.0 | 0.00 | 0.00 | 0.00 | 61 | 1018.0 |
| 20260504005429 | 71 | 259 | 7.0 | 9.0 | 0.00 | 0.00 | 0.00 | 63 | 1018.0 |
| 20260504004930 | 71 | 275 | 6.0 | 8.0 | 0.00 | 0.00 | 0.00 | 63 | 1018.0 |
| 20260504004429 | 71 | 255 | 8.0 | 10.0 | 0.00 | 0.00 | 0.00 | 64 | 1018.0 |
| 20260504003929 | 71 | 242 | 8.0 | 11.0 | 0.00 | 0.00 | 0.00 | 64 | 1018.0 |
| 20260504003429 | 70 | 258 | 10.0 | 12.0 | 0.00 | 0.00 | 0.00 | 65 | 1018.0 |
| 20260504002929 | 71 | 256 | 8.0 | 12.0 | 0.00 | 0.00 | 0.00 | 65 | 1018.0 |
| 20260504002429 | 71 | 249 | 8.0 | 11.0 | 0.00 | 0.00 | 0.00 | 65 | 1018.0 |
| 20260504001929 | 71 | 247 | 9.0 | 12.0 | 0.00 | 0.00 | 0.00 | 64 | 1018.0 |
| 20260504001431 | 71 | 252 | 8.0 | 10.0 | 0.00 | 0.00 | 0.00 | 64 | 1018.0 |
| 20260504000929 | 71 | 239 | 7.0 | 9.0 | 0.00 | 0.00 | 0.00 | 64 | 1018.0 |
| 20260504000431 | 71 | 254 | 8.0 | 9.0 | 0.00 | 0.00 | 0.00 | 63 | 1018.0 |
| 20260503235929 | 71 | 239 | 8.0 | 9.0 | 0.00 | 0.00 | 0.00 | 64 | 1018.0 |
| 20260503235429 | 71 | 245 | 8.0 | 11.0 | 0.00 | 0.00 | 0.00 | 64 | 1018.0 |
| 20260503234929 | 71 | 242 | 8.0 | 11.0 | 0.00 | 0.00 | 0.00 | 63 | 1018.0 |
| 20260503234429 | 71 | 246 | 7.0 | 9.0 | 0.00 | 0.00 | 0.00 | 62 | 1018.0 |
| 20260503233929 | 71 | 239 | 8.0 | 11.0 | 0.00 | 0.00 | 0.00 | 61 | 1018.0 |
| 20260503233429 | 71 | 234 | 7.0 | 9.0 | 0.00 | 0.00 | 0.00 | 62 | 1018.0 |
| 20260503232929 | 71 | 253 | 8.0 | 11.0 | 0.00 | 0.00 | 0.00 | 61 | 1018.0 |
| 20260503232429 | 71 | 245 | 9.0 | 11.0 | 0.00 | 0.00 | 0.00 | 61 | 1018.0 |
| 20260503231929 | 71 | 244 | 9.0 | 13.0 | 0.00 | 0.00 | 0.00 | 59 | 1018.0 |
| 20260503231433 | 71 | 250 | 9.0 | 11.0 | 0.00 | 0.00 | 0.00 | 60 | 1018.0 |
| 20260503230929 | 71 | 246 | 10.0 | 12.0 | 0.00 | 0.00 | 0.00 | 60 | 1018.0 |
| 20260503230429 | 71 | 254 | 10.0 | 11.0 | 0.00 | 0.00 | 0.00 | 59 | 1018.0 |
| 20260503225931 | 72 | 245 | 9.0 | 12.0 | 0.00 | 0.00 | 0.00 | 59 | 1018.0 |
| 20260503225429 | 72 | 250 | 8.0 | 11.0 | 0.00 | 0.00 | 0.00 | 58 | 1018.0 |
| 20260503224929 | 72 | 241 | 9.0 | 11.0 | 0.00 | 0.00 | 0.00 | 56 | 1018.0 |
| 20260503224429 | 73 | 221 | 7.0 | 9.0 | 0.00 | 0.00 | 0.00 | 57 | 1018.0 |
| 20260503223929 | 73 | 222 | 8.0 | 11.0 | 0.00 | 0.00 | 0.00 | 56 | 1018.0 |
| 20260503223429 | 73 | 225 | 7.0 | 9.0 | 0.00 | 0.00 | 0.00 | 55 | 1018.0 |
| 20260503222930 | 73 | 232 | 8.0 | 10.0 | 0.00 | 0.00 | 0.00 | 54 | 1018.0 |
| 20260503222429 | 73 | 234 | 8.0 | 10.0 | 0.00 | 0.00 | 0.00 | 53 | 1018.0 |
| 20260503221929 | 73 | 229 | 7.0 | 9.0 | 0.00 | 0.00 | 0.00 | 51 | 1018.0 |
| 20260503221430 | 73 | 226 | 6.0 | 9.0 | 0.00 | 0.00 | 0.00 | 50 | 1018.0 |
| 20260503220929 | 73 | 240 | 7.0 | 9.0 | 0.00 | 0.00 | 0.00 | 50 | 1018.0 |
| 20260503220429 | 73 | 235 | 7.0 | 9.0 | 0.00 | 0.00 | 0.00 | 49 | 1018.0 |
| 20260503215930 | 73 | 237 | 7.0 | 9.0 | 0.00 | 0.00 | 0.00 | 49 | 1018.0 |
| 20260503215429 | 73 | 227 | 7.0 | 9.0 | 0.00 | 0.00 | 0.00 | 49 | 1018.0 |
| 20260503214929 | 73 | 225 | 7.0 | 10.0 | 0.00 | 0.00 | 0.00 | 49 | 1018.0 |
| 20260503214429 | 73 | 234 | 7.0 | 9.0 | 0.00 | 0.00 | 0.00 | 47 | 1018.0 |
| 20260503213929 | 73 | 214 | 8.0 | 12.0 | 0.00 | 0.00 | 0.00 | 48 | 1018.0 |
| 20260503213429 | 73 | 218 | 8.0 | 12.0 | 0.00 | 0.00 | 0.00 | 47 | 1018.0 |
| 20260503212929 | 74 | 234 | 6.0 | 8.0 | 0.00 | 0.00 | 0.00 | 43 | 1018.0 |
| 20260503212429 | 73 | 244 | 8.0 | 11.0 | 0.00 | 0.00 | 0.00 | 45 | 1018.0 |
| 20260503211929 | 74 | 228 | 8.0 | 10.0 | 0.00 | 0.00 | 0.00 | 46 | 1018.0 |
| 20260503211430 | 74 | 254 | 7.0 | 11.0 | 0.00 | 0.00 | 0.00 | 45 | 1018.0 |
| 20260503210929 | 73 | 258 | 7.0 | 9.0 | 0.00 | 0.00 | 0.00 | 44 | 1018.0 |
| 20260503210429 | 73 | 255 | 7.0 | 9.0 | 0.00 | 0.00 | 0.00 | 47 | 1018.0 |
| 20260503205929 | 73 | 231 | 7.0 | 9.0 | 0.00 | 0.00 | 0.00 | 50 | 1018.0 |
| 20260503205429 | 73 | 230 | 7.0 | 10.0 | 0.00 | 0.00 | 0.00 | 51 | 1018.0 |
| 20260503204929 | 73 | 222 | 7.0 | 8.0 | 0.00 | 0.00 | 0.00 | 50 | 1019.0 |
| 20260503204429 | 73 | 225 | 8.0 | 10.0 | 0.00 | 0.00 | 0.00 | 48 | 1019.0 |
| 20260503203929 | 73 | 226 | 8.0 | 11.0 | 0.00 | 0.00 | 0.00 | 48 | 1019.0 |
| 20260503203429 | 73 | 240 | 7.0 | 10.0 | 0.00 | 0.00 | 0.00 | 50 | 1019.0 |
| 20260503202929 | 73 | 245 | 7.0 | 9.0 | 0.00 | 0.00 | 0.00 | 50 | 1019.0 |
| 20260503202429 | 73 | 235 | 6.0 | 10.0 | 0.00 | 0.00 | 0.00 | 52 | 1019.0 |
| 20260503201929 | 73 | 222 | 7.0 | 9.0 | 0.00 | 0.00 | 0.00 | 51 | 1019.0 |
| 20260503201429 | 73 | 180 | 5.0 | 10.0 | 0.00 | 0.00 | 0.00 | 51 | 1019.0 |
| 20260503200929 | 73 | 162 | 6.0 | 8.0 | 0.00 | 0.00 | 0.00 | 50 | 1019.0 |
| 20260503200429 | 73 | 148 | 8.0 | 10.0 | 0.00 | 0.00 | 0.00 | 49 | 1019.0 |
| 20260503195929 | 73 | 147 | 6.0 | 11.0 | 0.00 | 0.00 | 0.00 | 48 | 1019.0 |
| 20260503195429 | 73 | 181 | 5.0 | 9.0 | 0.00 | 0.00 | 0.00 | 42 | 1019.0 |
| 20260503194929 | 74 | 169 | 5.0 | 9.0 | 0.00 | 0.00 | 0.00 | 44 | 1019.0 |
| 20260503194430 | 74 | 191 | 6.0 | 9.0 | 0.00 | 0.00 | 0.00 | 46 | 1019.0 |
| 20260503193929 | 75 | 157 | 5.0 | 9.0 | 0.00 | 0.00 | 0.00 | 44 | 1019.0 |
| 20260503193429 | 76 | 205 | 5.0 | 8.0 | 0.00 | 0.00 | 0.00 | 47 | 1020.0 |
| 20260503192929 | 77 | 113 | 5.0 | 7.0 | 0.00 | 0.00 | 0.00 | 36 | 1020.0 |
| 20260503192429 | 78 | 112 | 4.0 | 8.0 | 0.00 | 0.00 | 0.00 | 32 | 1020.0 |
| 20260503191929 | 78 | 64 | 4.0 | 7.0 | 0.00 | 0.00 | 0.00 | 32 | 1020.0 |
| 20260503191429 | 78 | 293 | 5.0 | 6.0 | 0.00 | 0.00 | 0.00 | 32 | 1020.0 |
| 20260503190929 | 78 | 75 | 6.0 | 8.0 | 0.00 | 0.00 | 0.00 | 31 | 1020.0 |
| 20260503190429 | 78 | 96 | 5.0 | 8.0 | 0.00 | 0.00 | 0.00 | 32 | 1020.0 |
| 20260503185929 | 78 | 79 | 4.0 | 10.0 | 0.00 | 0.00 | 0.00 | 32 | 1020.0 |
| 20260503185429 | 78 | 127 | 4.0 | 8.0 | 0.00 | 0.00 | 0.00 | 32 | 1020.0 |
| 20260503184929 | 78 | 201 | 3.0 | 4.0 | 0.00 | 0.00 | 0.00 | 32 | 1020.0 |
| 20260503184429 | 77 | 161 | 2.0 | 5.0 | 0.00 | 0.00 | 0.00 | 32 | 1020.0 |
| 20260503183930 | 77 | 271 | 4.0 | 7.0 | 0.00 | 0.00 | 0.00 | 32 | 1020.0 |
| 20260503183430 | 76 | 219 | 4.0 | 7.0 | 0.00 | 0.00 | 0.00 | 32 | 1020.0 |
| 20260503182929 | 76 | 80 | 4.0 | 6.0 | 0.00 | 0.00 | 0.00 | 32 | 1020.0 |
| 20260503182430 | 76 | 91 | 5.0 | 9.0 | 0.00 | 0.00 | 0.00 | 32 | 1020.0 |
| 20260503181929 | 76 | 206 | 3.0 | 5.0 | 0.00 | 0.00 | 0.00 | 32 | 1021.0 |
| 20260503181429 | 76 | 21 | 1.0 | 4.0 | 0.00 | 0.00 | 0.00 | 32 | 1021.0 |
| 20260503180930 | 76 | 100 | 5.0 | 8.0 | 0.00 | 0.00 | 0.00 | 32 | 1021.0 |
| 20260503180429 | 76 | 22 | 4.0 | 8.0 | 0.00 | 0.00 | 0.00 | 31 | 1021.0 |
| 20260503175929 | 76 | 163 | 3.0 | 5.0 | 0.00 | 0.00 | 0.00 | 31 | 1021.0 |
| 20260503175429 | 76 | 170 | 5.0 | 8.0 | 0.00 | 0.00 | 0.00 | 31 | 1021.0 |
| 20260503174929 | 76 | 92 | 6.0 | 9.0 | 0.00 | 0.00 | 0.00 | 30 | 1021.0 |
| 20260503174429 | 76 | 71 | 3.0 | 8.0 | 0.00 | 0.00 | 0.00 | 30 | 1021.0 |
| 20260503173929 | 75 | 254 | 4.0 | 8.0 | 0.00 | 0.00 | 0.00 | 31 | 1021.0 |
| 20260503173430 | 75 | 144 | 6.0 | 9.0 | 0.00 | 0.00 | 0.00 | 31 | 1021.0 |
| 20260503172930 | 75 | 56 | 4.0 | 8.0 | 0.00 | 0.00 | 0.00 | 30 | 1021.0 |
| 20260503172429 | 75 | 67 | 6.0 | 11.0 | 0.00 | 0.00 | 0.00 | 31 | 1021.0 |
| 20260503171930 | 75 | 164 | 5.0 | 9.0 | 0.00 | 0.00 | 0.00 | 31 | 1021.0 |
| 20260503171429 | 75 | 190 | 8.0 | 14.0 | 0.00 | 0.00 | 0.00 | 31 | 1021.0 |
| 20260503170929 | 74 | 113 | 5.0 | 9.0 | 0.00 | 0.00 | 0.00 | 33 | 1021.0 |
| 20260503170429 | 74 | 192 | 5.0 | 7.0 | 0.00 | 0.00 | 0.00 | 32 | 1021.0 |
| 20260503150929 | 72 | 128 | 4.0 | 6.0 | 0.00 | 0.00 | 0.00 | 41 | 1022.0 |
| 20260503150429 | 71 | 195 | 2.0 | 4.0 | 0.00 | 0.00 | 0.00 | 44 | 1022.0 |
| 20260503130929 | 62 | 181 | 4.0 | 6.0 | 0.00 | 0.00 | 0.00 | 58 | 1021.0 |
| 20260503130429 | 62 | 202 | 3.0 | 5.0 | 0.00 | 0.00 | 0.00 | 59 | 1021.0 |
| 20260503110429 | 57 | 193 | 0.0 | 0.0 | 0.00 | 0.00 | 0.00 | 66 | 1020.0 |
| 20260503081429 | 59 | 172 | 2.0 | 2.0 | 0.00 | 0.00 | 0.00 | 64 | 1019.0 |
| 20260503080929 | 59 | 152 | 4.0 | 4.0 | 0.00 | 0.00 | 0.00 | 63 | 1019.0 |
| 20260503080429 | 59 | 181 | 4.0 | 6.0 | 0.00 | 0.00 | 0.00 | 63 | 1019.0 |
| 20260503072929 | 59 | 180 | 2.0 | 4.0 | 0.00 | 0.00 | 0.00 | 63 | 1019.0 |
| 20260503041929 | 63 | 174 | 4.0 | 6.0 | 0.00 | 0.00 | 1.26 | 59 | 1018.0 |
| 20260503041431 | 63 | 162 | 4.0 | 6.0 | 0.00 | 0.00 | 1.26 | 60 | 1018.0 |
| 20260503040929 | 63 | 177 | 2.0 | 4.0 | 0.00 | 0.00 | 1.26 | 59 | 1018.0 |
| 20260503040429 | 63 | 187 | 4.0 | 5.0 | 0.00 | 0.00 | 1.26 | 58 | 1018.0 |
| 20260503033429 | 64 | 175 | 5.0 | 7.0 | 0.00 | 0.00 | 1.26 | 54 | 1018.0 |
| 20260503032930 | 64 | 185 | 5.0 | 7.0 | 0.00 | 0.00 | 1.26 | 55 | 1018.0 |
| 20260503031930 | 64 | 179 | 5.0 | 6.0 | 0.00 | 0.00 | 1.26 | 53 | 1017.0 |
| 20260503031430 | 64 | 187 | 5.0 | 7.0 | 0.00 | 0.00 | 1.26 | 53 | 1017.0 |
| 20260503030929 | 64 | 199 | 5.0 | 8.0 | 0.00 | 0.00 | 1.26 | 52 | 1017.0 |
| 20260503030429 | 64 | 184 | 3.0 | 6.0 | 0.00 | 0.00 | 1.26 | 52 | 1017.0 |
| 20260503025931 | 64 | 190 | 5.0 | 6.0 | 0.00 | 0.00 | 1.26 | 53 | 1017.0 |
| 20260503025429 | 64 | 190 | 4.0 | 9.0 | 0.00 | 0.00 | 1.26 | 52 | 1017.0 |
| 20260503024929 | 65 | 176 | 4.0 | 6.0 | 0.00 | 0.00 | 1.26 | 52 | 1017.0 |
| 20260503024429 | 65 | 177 | 4.0 | 6.0 | 0.00 | 0.00 | 1.26 | 51 | 1017.0 |
| 20260503023929 | 65 | 207 | 5.0 | 7.0 | 0.00 | 0.00 | 1.26 | 51 | 1017.0 |
| 20260503023429 | 65 | 216 | 4.0 | 8.0 | 0.00 | 0.00 | 1.26 | 50 | 1017.0 |
| 20260503022929 | 65 | 194 | 4.0 | 5.0 | 0.00 | 0.00 | 1.26 | 50 | 1017.0 |
| 20260503022429 | 65 | 187 | 4.0 | 5.0 | 0.00 | 0.00 | 1.26 | 50 | 1017.0 |
| 20260503021929 | 65 | 208 | 4.0 | 8.0 | 0.00 | 0.00 | 1.26 | 49 | 1017.0 |
| 20260503021429 | 66 | 177 | 5.0 | 6.0 | 0.00 | 0.00 | 1.26 | 49 | 1017.0 |
| 20260503020929 | 66 | 202 | 5.0 | 6.0 | 0.00 | 0.00 | 1.26 | 49 | 1017.0 |
| 20260503020429 | 66 | 202 | 2.0 | 6.0 | 0.00 | 0.00 | 1.26 | 50 | 1017.0 |
| 20260503015929 | 66 | 213 | 4.0 | 7.0 | 0.00 | 0.00 | 1.26 | 50 | 1017.0 |
| 20260503015430 | 66 | 183 | 3.0 | 6.0 | 0.00 | 0.00 | 1.26 | 49 | 1017.0 |
| 20260503014929 | 66 | 188 | 5.0 | 6.0 | 0.00 | 0.00 | 1.26 | 49 | 1016.0 |
| 20260503014429 | 66 | 169 | 5.0 | 8.0 | 0.00 | 0.00 | 1.26 | 49 | 1016.0 |
| 20260503013929 | 67 | 231 | 7.0 | 14.0 | 0.00 | 0.00 | 1.26 | 49 | 1016.0 |
| 20260503013429 | 67 | 207 | 3.0 | 7.0 | 0.00 | 0.00 | 1.26 | 48 | 1016.0 |
| 20260503012929 | 67 | 186 | 5.0 | 7.0 | 0.00 | 0.00 | 1.26 | 48 | 1016.0 |
| 20260503012429 | 67 | 176 | 5.0 | 9.0 | 0.00 | 0.00 | 1.26 | 49 | 1016.0 |
| 20260503011930 | 67 | 179 | 5.0 | 8.0 | 0.00 | 0.00 | 1.26 | 49 | 1016.0 |